Date String (YYYY-MM-DD hh:mm:ss) UTC,Instrument flags,absolute air pressure of the measurement (hPa),sample flow rate (lpm),inlet stack bypass flow (lpm),air temperature of the measurement (°C),ambient temperature measured by the external sensor (°C),aerosol sample conditioner tube jacket temperature (°C),OPC LED temperature (°C),internal box temperature (°C),relative humidity of the measurement (%),span deviation,mass concentration of particles derived from Lorenz-Mie calculation of OPC scattering (μg/m³),mass concentration of particles derived from Lorenz-Mie calculation of OPC scattering (μg/m³),mass concentration of particles derived from Lorenz-Mie calculation of OPC scattering (μg/m³)
DateTimeUTC,F1_M11,P_M11,Q1_M11,Q2_M11,T1_M11,T2_M11,T3_M11,T4_M11,T5_M11,U1_M11,ZSPAN_M11,X0_M11,X2_M11,X1_M11
2023-09-08 13:00:00,SystemResetWarning,0836.8,5.00,000.00,029.0,027.5,000.0,037.3,030.5,16.3,0000.0,0011.65,0003.73,0002.90
2023-09-08 13:01:00,SystemResetWarning,0836.8,5.00,000.00,029.0,027.5,000.0,037.3,030.5,16.3,0000.0,0011.03,0003.69,0002.89
2023-09-08 13:02:00,SystemResetWarning,0836.8,5.00,000.00,029.0,027.5,000.0,037.3,030.5,16.2,0000.0,0010.08,0003.66,0002.90
2023-09-08 13:03:00,SystemResetWarning,0836.8,5.00,000.00,029.0,027.5,000.0,037.3,030.5,16.3,0000.0,0010.03,0003.64,0002.89
2023-09-08 13:04:00,SystemResetWarning,0836.8,5.00,000.00,029.0,027.5,000.0,037.3,030.6,16.3,0000.0,0009.39,0003.61,0002.88
2023-09-08 13:05:00,SystemResetWarning,0836.8,5.00,000.00,029.0,027.6,000.0,037.3,030.6,16.4,0000.0,0009.04,0003.55,0002.88
2023-09-08 13:06:00,SystemResetWarning,0836.8,4.99,000.00,029.0,027.6,000.0,037.3,030.6,16.5,0000.0,0008.77,0003.54,0002.87
2023-09-08 13:07:00,SystemResetWarning,0836.8,4.99,000.00,029.0,027.6,000.0,037.4,030.6,16.4,0000.0,0008.68,0003.52,0002.88
2023-09-08 13:08:00,SystemResetWarning,0836.8,4.99,000.00,029.0,027.6,000.0,037.4,030.6,16.5,0000.0,0008.84,0003.56,0002.90
2023-09-08 13:09:00,SystemResetWarning,0836.8,5.01,000.00,029.0,027.6,000.0,037.4,030.6,16.5,0000.0,0008.90,0003.57,0002.91
2023-09-08 13:10:00,SystemResetWarning,0836.8,5.01,000.00,029.0,027.6,000.0,037.4,030.6,16.6,0000.0,0008.81,0003.56,0002.92
2023-09-08 13:11:00,SystemResetWarning,0836.7,5.01,000.00,029.1,027.6,000.0,037.4,030.6,16.6,0000.0,0009.30,0003.55,0002.92
2023-09-08 13:12:00,SystemResetWarning,0836.8,5.00,000.00,029.1,027.6,000.0,037.4,030.6,16.6,0000.0,0009.54,0003.59,0002.93
2023-09-08 13:13:00,SystemResetWarning,0836.8,4.99,000.00,029.1,027.6,000.0,037.4,030.6,16.5,0000.0,0009.77,0003.58,0002.94
2023-09-08 13:14:00,SystemResetWarning,0836.8,5.00,000.00,029.1,027.6,000.0,037.4,030.6,16.5,0000.0,0010.23,0003.58,0002.93
2023-09-08 13:15:00,SystemResetWarning,0836.8,5.01,000.00,029.1,027.6,000.0,037.4,030.6,16.6,0000.0,0010.33,0003.59,0002.93
2023-09-08 13:16:00,SystemResetWarning,0836.8,5.00,000.00,029.1,027.2,000.0,037.4,030.5,16.5,0000.0,0010.43,0003.62,0002.93
2023-09-08 13:17:00,SystemResetWarning,0836.7,4.99,000.00,029.0,025.5,000.0,037.3,030.1,16.6,0000.0,0010.90,0003.62,0002.92
2023-09-08 13:18:00,SystemResetWarning,0836.7,5.01,000.00,028.9,025.0,000.0,037.2,030.0,16.8,0000.0,0011.06,0003.60,0002.90
2023-09-08 13:19:00,SystemResetWarning,0836.7,5.00,000.00,028.7,025.1,000.0,037.2,029.7,17.1,0000.0,0012.14,0003.61,0002.88
2023-09-08 13:20:00,SystemResetWarning,0836.7,5.00,000.00,028.6,025.4,000.0,037.2,029.7,17.1,0000.0,0011.94,0003.60,0002.86
2023-09-08 13:21:00,SystemResetWarning,0836.7,5.00,000.00,028.6,025.7,000.0,037.1,029.8,17.3,0000.0,0012.34,0003.63,0002.85
2023-09-08 13:22:00,SystemResetWarning,0836.7,5.00,000.00,028.6,026.0,000.0,037.1,029.8,17.2,0000.0,0012.58,0003.68,0002.84
2023-09-08 13:23:00,SystemResetWarning,0836.8,5.00,000.00,028.6,026.2,000.0,037.1,029.9,17.3,0000.0,0011.53,0003.63,0002.84
2023-09-08 13:24:00,SystemResetWarning,0836.8,5.00,000.00,028.5,026.4,000.0,037.1,029.9,17.4,0000.0,0011.37,0003.63,0002.82
2023-09-08 13:25:00,SystemResetWarning,0836.8,5.00,000.00,028.6,026.6,000.0,037.1,030.0,17.6,0000.0,0010.90,0003.67,0002.84
2023-09-08 13:26:00,SystemResetWarning,0836.8,5.00,000.00,028.6,026.8,000.0,037.1,030.0,17.5,0000.0,0010.83,0003.68,0002.85
2023-09-08 13:27:00,SystemResetWarning,0836.8,5.00,000.00,028.6,026.9,000.0,037.0,030.0,17.3,0000.0,0010.81,0003.67,0002.84
2023-09-08 13:28:00,SystemResetWarning,0836.8,5.00,000.00,028.6,027.0,000.0,037.0,030.1,17.3,0000.0,0010.28,0003.66,0002.85
2023-09-08 13:29:00,SystemResetWarning,0836.8,4.99,000.00,028.6,027.0,000.0,037.0,030.0,17.3,0000.0,0011.15,0003.71,0002.87
2023-09-08 13:30:00,SystemResetWarning,0836.8,4.99,000.00,028.6,027.1,000.0,037.0,030.1,17.4,0000.0,0010.23,0003.76,0002.87
2023-09-08 13:31:00,SystemResetWarning,0836.8,4.99,000.00,028.6,027.1,000.0,037.0,030.2,17.4,0000.0,0010.11,0003.81,0002.90
2023-09-08 13:32:00,SystemResetWarning,0836.8,4.99,000.00,028.6,027.2,000.0,037.0,030.2,17.5,0000.0,0010.05,0003.82,0002.92
2023-09-08 13:33:00,SystemResetWarning,0836.8,5.01,000.00,028.6,027.2,000.0,037.0,030.1,17.4,0000.0,0009.32,0003.81,0002.94
2023-09-08 13:34:00,SystemResetWarning,0836.8,5.01,000.00,028.6,027.3,000.0,037.0,030.1,17.5,0000.0,0009.15,0003.86,0002.96
2023-09-08 13:35:00,SystemResetWarning,0836.7,5.01,000.00,028.7,027.3,000.0,037.0,030.2,17.5,0000.0,0009.12,0003.89,0002.99
2023-09-08 13:36:00,SystemResetWarning,0836.8,5.00,000.00,028.7,027.3,000.0,037.1,030.2,17.4,0000.0,0009.14,0003.89,0003.01
2023-09-08 13:37:00,SystemResetWarning,0836.8,4.99,000.00,028.7,027.3,000.0,037.1,030.2,17.4,0000.0,0009.12,0003.87,0003.01
2023-09-08 13:38:00,SystemResetWarning,0836.8,4.99,000.00,028.7,027.4,000.0,037.1,030.2,17.4,0000.0,0009.10,0003.86,0003.04
2023-09-08 13:39:00,SystemResetWarning,0836.8,4.99,000.00,028.7,027.4,000.0,037.1,030.2,17.3,0000.0,0009.33,0003.88,0003.07
2023-09-08 13:40:00,SystemResetWarning,0836.9,4.99,000.00,028.7,027.4,000.0,037.1,030.3,17.4,0000.0,0009.31,0003.88,0003.09
2023-09-08 13:41:00,SystemResetWarning,0836.9,5.01,000.00,028.7,027.4,000.0,037.1,030.3,17.5,0000.0,0009.49,0003.83,0003.09
2023-09-08 13:42:00,SystemResetWarning,0836.9,5.01,000.00,028.8,027.5,000.0,037.1,030.3,17.6,0000.0,0009.37,0003.79,0003.10
2023-09-08 13:43:00,SystemResetWarning,0836.9,4.99,000.00,028.8,027.5,000.0,037.1,030.4,17.4,0000.0,0009.66,0003.78,0003.09
2023-09-08 13:44:00,SystemResetWarning,0836.9,4.99,000.00,028.8,027.5,000.0,037.1,030.4,17.4,0001.6,0009.63,0003.74,0003.07
2023-09-08 13:45:00,SystemResetWarning,0836.8,5.00,000.00,028.8,027.5,000.0,037.1,030.4,17.5,0001.5,0009.39,0003.68,0003.07
2023-09-08 13:46:00,SystemResetWarning,0836.8,5.00,000.00,028.8,027.5,000.0,037.1,030.4,17.5,0000.8,0009.72,0003.66,0003.07
2023-09-08 13:47:00,SystemResetWarning,0836.8,5.00,000.00,028.8,027.6,000.0,037.2,030.4,17.5,0000.0,0010.17,0003.66,0003.07
2023-09-08 13:48:00,SystemResetWarning,0836.8,5.01,000.00,028.9,027.6,000.0,037.2,030.4,17.5,0000.0,0010.69,0003.65,0003.07
2023-09-08 13:49:00,SystemResetWarning,0836.9,5.01,000.00,028.9,027.6,000.0,037.2,030.4,17.5,0000.0,0010.81,0003.65,0003.07
2023-09-08 13:50:00,SystemResetWarning,0836.8,5.00,000.00,028.9,027.4,000.0,037.2,030.4,17.4,0000.0,0010.93,0003.68,0003.08
2023-09-08 13:51:00,SystemResetWarning,0836.8,4.98,000.00,028.8,025.9,000.0,037.1,030.0,17.5,0000.0,0010.48,0003.69,0003.07
2023-09-08 13:52:00,SystemResetWarning,0836.8,5.01,000.00,028.7,024.7,000.0,037.0,029.7,17.9,0000.0,0009.98,0003.71,0003.08
2023-09-08 13:53:00,SystemResetWarning,0836.8,5.01,000.00,028.6,024.7,000.0,037.0,029.6,18.1,0000.0,0010.24,0003.73,0003.09
2023-09-08 13:54:00,SystemResetWarning,0836.8,5.00,000.00,028.5,025.0,000.0,037.0,029.6,18.2,0000.0,0010.70,0003.79,0003.11
2023-09-08 13:55:00,SystemResetWarning,0836.8,5.00,000.00,028.4,025.3,000.0,036.9,029.6,18.0,0000.0,0010.65,0003.88,0003.13
2023-09-08 13:56:00,SystemResetWarning,0836.8,5.01,000.00,028.4,025.7,000.0,036.9,029.7,18.1,0000.0,0010.62,0003.89,0003.14
2023-09-08 13:57:00,SystemResetWarning,0836.8,5.00,000.00,028.4,026.0,000.0,036.9,029.7,17.8,0000.0,0010.48,0003.93,0003.14
2023-09-08 13:58:00,SystemResetWarning,0836.8,5.00,000.00,028.4,026.2,000.0,036.9,029.8,17.8,0001.6,0009.74,0003.90,0003.15
2023-09-08 13:59:00,SystemResetWarning,0836.8,5.00,000.00,028.4,026.4,000.0,036.9,029.8,18.1,0001.8,0009.38,0003.92,0003.14
